Location: Unspecified
(0.0000°N, 0.0000°E)
Time: 20:00:23
(UTC+01:00)

H-2A R/B - Visible Passes

Search period start: 14 February 2016 00:00
Search period end: 24 February 2016 00:00
Orbit: 231 x 33293 km, 28.1° (Epoch: 12 February)

Date Brightness Start Highest point End Pass type
(mag) Time Alt. Az. Time Alt. Az. Time Alt. Az.
14 Feb 5.8 05:40:09 10° SW 06:00:02 51° SE 14:39:43 10° ENE visible
15 Feb 3.7 11:21:02 10° WSW 20:08:55 66° NNE 20:13:06 17° E visible
16 Feb 6.0 06:20:53 10° SW 06:47:25 65° SE 15:23:57 10° ENE visible
17 Feb 10.0 08:20:14 10° ENE 08:29:11 10° ENE 08:37:45 10° ENE visible
17 Feb 2.6 20:27:21 10° WNW 20:50:26 84° SSW 20:52:04 44° SE visible
19 Feb 9.3 06:30:14 10° ENE 09:04:40 20° ENE 10:32:21 10° ENE visible
19 Feb 3.2 21:19:04 10° WNW 21:30:37 40° SW 21:30:39 40° SW visible
21 Feb 5.8 03:01:22 12° SSE 03:06:56 16° SE 11:32:20 10° ENE visible
21 Feb 4.8 22:06:30 10° W 22:08:51 13° WSW 22:08:51 13° WSW visible
23 Feb 5.6 03:39:27 16° S 03:48:36 27° SE 12:23:17 10° ENE visible
